EN

Hourly Weather Gabrovo

Today, 20 October, Tuesday

Time Temperature Precipitation Wind Pressure Humidity
00:00 +6°C° 0 mm 1 mps 707 mmHg 68%
01:00 +6°C° 0 mm 1 mps 707 mmHg 68%
02:00 +6°C° 0 mm 1 mps 707 mmHg 68%
03:00 +6°C° 0 mm 1 mps 707 mmHg 69%
04:00 +4°C° 0 mm 0 mps 707 mmHg 69%
05:00 +4°C° 0 mm 0 mps 707 mmHg 69%
06:00 +6°C° 0 mm 1 mps 708 mmHg 67%
07:00 +7°C° 0 mm 1 mps 708 mmHg 65%
08:00 +8°C° 0 mm 1 mps 708 mmHg 63%
09:00 +9°C° 0 mm 1 mps 709 mmHg 58%
10:00 +11°C° 0 mm 1 mps 709 mmHg 53%
11:00 +12°C° 0 mm 0 mps 709 mmHg 48%
12:00 +14°C° 0 mm 1 mps 709 mmHg 48%
13:00 +14°C° 0 mm 1 mps 709 mmHg 47%
14:00 +14°C° 0 mm 1 mps 709 mmHg 47%
15:00 +13°C° 0 mm 1 mps 709 mmHg 52%
16:00 +13°C° 0 mm 1 mps 708 mmHg 57%
17:00 +12°C° 0 mm 1 mps 708 mmHg 62%
18:00 +11°C° 0 mm 1 mps 708 mmHg 65%
19:00 +10°C° 0 mm 1 mps 709 mmHg 68%
20:00 +8°C° 0 mm 0 mps 709 mmHg 72%
21:00 +9°C° 0 mm 1 mps 709 mmHg 73%
22:00 +9°C° 0 mm 1 mps 709 mmHg 74%
23:00 +9°C° 0 mm 1 mps 710 mmHg 75%

Tomorrow, 21 October, Wednesday

Time Temperature Precipitation Wind Pressure Humidity
00:00 +8°C° 0 mm 1 mps 709 mmHg 78%
01:00 +8°C° 0 mm 1 mps 709 mmHg 81%
02:00 +7°C° 0 mm 1 mps 709 mmHg 83%
03:00 +7°C° 0 mm 1 mps 709 mmHg 83%
04:00 +7°C° 0 mm 1 mps 709 mmHg 84%
05:00 +6°C° 0 mm 1 mps 709 mmHg 84%
06:00 +7°C° 0 mm 1 mps 709 mmHg 80%
07:00 +8°C° 0 mm 1 mps 709 mmHg 77%
08:00 +8°C° 0 mm 1 mps 709 mmHg 73%
09:00 +10°C° 0 mm 1 mps 709 mmHg 66%
10:00 +12°C° 0 mm 1 mps 709 mmHg 59%
11:00 +14°C° 0 mm 1 mps 709 mmHg 52%
12:00 +15°C° 0 mm 1 mps 709 mmHg 49%
13:00 +15°C° 0 mm 1 mps 709 mmHg 45%
14:00 +15°C° 0 mm 0 mps 708 mmHg 41%
15:00 +14°C° 0 mm 0 mps 708 mmHg 46%
16:00 +13°C° 0 mm 0 mps 708 mmHg 50%
17:00 +12°C° 0 mm 0 mps 707 mmHg 54%
18:00 +12°C° 0 mm 1 mps 707 mmHg 55%
19:00 +11°C° 0 mm 1 mps 707 mmHg 57%
20:00 +10°C° 0 mm 1 mps 707 mmHg 58%
21:00 +10°C° 0 mm 1 mps 707 mmHg 58%
22:00 +10°C° 0 mm 1 mps 707 mmHg 58%
23:00 +9°C° 0 mm 1 mps 707 mmHg 58%

Day after tomorrow, 22 October, Thursday

Time Temperature Precipitation Wind Pressure Humidity
00:00 +9°C° 0 mm 1 mps 707 mmHg 58%
01:00 +9°C° 0 mm 1 mps 707 mmHg 57%
02:00 +8°C° 0 mm 1 mps 707 mmHg 57%
03:00 +8°C° 0 mm 1 mps 706 mmHg 55%
04:00 +8°C° 0 mm 1 mps 706 mmHg 53%
05:00 +8°C° 0 mm 1 mps 706 mmHg 52%
06:00 +9°C° 0 mm 1 mps 706 mmHg 49%
07:00 +8°C° 0 mm 0 mps 707 mmHg 46%
08:00 +9°C° 0 mm 0 mps 707 mmHg 44%
09:00 +12°C° 0 mm 0 mps 707 mmHg 39%
10:00 +15°C° 0 mm 1 mps 707 mmHg 34%
11:00 +18°C° 0 mm 1 mps 708 mmHg 29%
12:00 +19°C° 0 mm 1 mps 707 mmHg 28%
13:00 +20°C° 0 mm 1 mps 707 mmHg 26%
14:00 +21°C° 0 mm 1 mps 707 mmHg 25%
15:00 +19°C° 0 mm 1 mps 707 mmHg 30%
16:00 +16°C° 0 mm 0 mps 706 mmHg 35%
17:00 +14°C° 0 mm 0 mps 706 mmHg 39%
18:00 +13°C° 0 mm 0 mps 705 mmHg 40%
19:00 +13°C° 0 mm 1 mps 705 mmHg 40%
20:00 +12°C° 0 mm 1 mps 705 mmHg 41%
21:00 +12°C° 0 mm 1 mps 705 mmHg 40%
22:00 +10°C° 0 mm 0 mps 705 mmHg 40%
23:00 +10°C° 0 mm 0 mps 705 mmHg 39%

23 October, Friday

Time Temperature Precipitation Wind Pressure Humidity
00:00 +10°C° 0 mm 0 mps 705 mmHg 39%
01:00 +10°C° 0 mm 1 mps 705 mmHg 38%
02:00 +10°C° 0 mm 1 mps 704 mmHg 38%
03:00 +10°C° 0 mm 1 mps 704 mmHg 38%
04:00 +9°C° 0 mm 1 mps 704 mmHg 37%
05:00 +8°C° 0 mm 0 mps 704 mmHg 37%
06:00 +9°C° 0 mm 0 mps 704 mmHg 36%
07:00 +10°C° 0 mm 0 mps 704 mmHg 36%
08:00 +10°C° 0 mm 0 mps 704 mmHg 36%
09:00 +14°C° 0 mm 1 mps 704 mmHg 32%
10:00 +16°C° 0 mm 1 mps 705 mmHg 28%
11:00 +20°C° 0 mm 1 mps 705 mmHg 25%
12:00 +20°C° 0 mm 1 mps 705 mmHg 24%
13:00 +21°C° 0 mm 1 mps 704 mmHg 23%
14:00 +22°C° 0 mm 1 mps 704 mmHg 22%
15:00 +20°C° 0 mm 1 mps 704 mmHg 26%
16:00 +18°C° 0 mm 1 mps 703 mmHg 30%
17:00 +14°C° 0 mm 0 mps 703 mmHg 34%
18:00 +14°C° 0 mm 0 mps 703 mmHg 34%
19:00 +13°C° 0 mm 0 mps 703 mmHg 34%
20:00 +12°C° 0 mm 0 mps 703 mmHg 35%
21:00 +11°C° 0 mm 0 mps 703 mmHg 35%
22:00 +11°C° 0 mm 0 mps 703 mmHg 36%
23:00 +11°C° 0 mm 0 mps 703 mmHg 36%

24 October, Saturday

Time Temperature Precipitation Wind Pressure Humidity
00:00 +11°C° 0 mm 1 mps 702 mmHg 38%
01:00 +11°C° 0 mm 1 mps 702 mmHg 39%
02:00 +11°C° 0 mm 1 mps 702 mmHg 41%
03:00 +11°C° 0 mm 1 mps 702 mmHg 41%
04:00 +11°C° 0 mm 1 mps 701 mmHg 42%
05:00 +10°C° 0 mm 1 mps 701 mmHg 42%
06:00 +11°C° 0 mm 1 mps 702 mmHg 42%
07:00 +12°C° 0 mm 1 mps 702 mmHg 42%
08:00 +12°C° 0 mm 1 mps 702 mmHg 42%
09:00 +14°C° 0 mm 1 mps 702 mmHg 39%
10:00 +16°C° 0 mm 1 mps 703 mmHg 36%
11:00 +20°C° 0 mm 1 mps 703 mmHg 33%
12:00 +20°C° 0 mm 1 mps 703 mmHg 33%
13:00 +21°C° 0 mm 1 mps 703 mmHg 32%
14:00 +22°C° 0 mm 1 mps 703 mmHg 32%
15:00 +20°C° 0 mm 1 mps 703 mmHg 37%
16:00 +19°C° 0 mm 1 mps 702 mmHg 42%
17:00 +16°C° 0 mm 1 mps 702 mmHg 47%
18:00 +16°C° 0 mm 1 mps 702 mmHg 51%
19:00 +15°C° 0 mm 1 mps 703 mmHg 54%
20:00 +14°C° 0 mm 2 mps 703 mmHg 58%
21:00 +14°C° 0 mm 2 mps 703 mmHg 62%
22:00 +13°C° 0 mm 2 mps 703 mmHg 67%
23:00 +13°C° 0 mm 2 mps 704 mmHg 71%

25 October, Sunday

Time Temperature Precipitation Wind Pressure Humidity
00:00 +12°C° 0 mm 1 mps 704 mmHg 73%
01:00 +12°C° 0 mm 1 mps 704 mmHg 75%
02:00 +12°C° 0 mm 1 mps 704 mmHg 78%
03:00 +11°C° 0 mm 1 mps 704 mmHg 79%
04:00 +11°C° 0 mm 1 mps 704 mmHg 81%
05:00 +11°C° 0 mm 1 mps 704 mmHg 82%
06:00 +11°C° 0 mm 1 mps 704 mmHg 81%
07:00 +11°C° 0 mm 1 mps 704 mmHg 79%
08:00 +11°C° 0 mm 1 mps 704 mmHg 78%
09:00 +13°C° 0 mm 1 mps 705 mmHg 71%
10:00 +14°C° 0 mm 1 mps 705 mmHg 64%
11:00 +16°C° 0 mm 1 mps 705 mmHg 57%
12:00 +16°C° 0 mm 1 mps 705 mmHg 56%
13:00 +16°C° 0 mm 2 mps 705 mmHg 55%
14:00 +17°C° 0 mm 2 mps 704 mmHg 53%
15:00 +16°C° 0 mm 2 mps 704 mmHg 56%
16:00 +15°C° 0 mm 2 mps 704 mmHg 58%
17:00 +15°C° 0 mm 2 mps 704 mmHg 61%
18:00 +14°C° 0 mm 2 mps 704 mmHg 64%
19:00 +13°C° 0 mm 2 mps 704 mmHg 68%
20:00 +12°C° 0 mm 2 mps 704 mmHg 71%
21:00 +12°C° 0 mm 2 mps 704 mmHg 77%
22:00 +10°C° 0 mm 2 mps 704 mmHg 83%
23:00 +10°C° 0 mm 2 mps 704 mmHg 89%

26 October, Monday

Time Temperature Precipitation Wind Pressure Humidity
00:00 +10°C° 0 mm 2 mps 704 mmHg 88%
01:00 +10°C° 0 mm 2 mps 704 mmHg 88%
02:00 +10°C° 0 mm 2 mps 704 mmHg 88%
03:00 +10°C° 0 mm 2 mps 704 mmHg 88%
04:00 +10°C° 0 mm 2 mps 703 mmHg 88%
05:00 +10°C° 0 mm 2 mps 703 mmHg 87%
06:00 +10°C° 0.2 mm 2 mps 703 mmHg 87%
07:00 +10°C° 0.2 mm 3 mps 703 mmHg 87%
08:00 +10°C° 0.2 mm 3 mps 703 mmHg 87%
09:00 +10°C° 0.2 mm 3 mps 703 mmHg 86%
10:00 +10°C° 0.2 mm 3 mps 703 mmHg 85%
11:00 +10°C° 0.2 mm 3 mps 703 mmHg 84%
12:00 +10°C° 0.2 mm 3 mps 703 mmHg 83%
13:00 +10°C° 0.2 mm 3 mps 703 mmHg 82%
14:00 +10°C° 0.2 mm 3 mps 702 mmHg 81%
15:00 +10°C° 0 mm 2 mps 702 mmHg 81%
16:00 +10°C° 0 mm 2 mps 702 mmHg 80%
17:00 +10°C° 0 mm 2 mps 702 mmHg 80%
18:00 +10°C° 0 mm 2 mps 702 mmHg 79%
19:00 +10°C° 0 mm 2 mps 702 mmHg 78%
20:00 +10°C° 0 mm 2 mps 702 mmHg 78%
21:00 +10°C° 0 mm 2 mps 702 mmHg 79%
22:00 +9°C° 0 mm 2 mps 702 mmHg 81%
23:00 +9°C° 0 mm 2 mps 702 mmHg 82%
Show more